22/8/19
Time         Wind Dir  Wind Gust   Humidity       Temp   Tot Rain Wind Chill Heat Index  Dew Point   Barom SL Temp Out H Temp Out L  DailyRain   HourRain   24HrRain   RainRate   Wind Run   Deg Heat   Deg Cool  MonthRain
                          km/hr          %         C         mm         C         C         C         mb         C         C         mm         mm         mm      mm/hr         km         C         C         mm
0:00              252        6.4         68       25.8      122.8       25.8       27.3       19.5     1015.2       25.8       25.8        0.0        0.0        0.0       0.00      101.0       0.00       5.50        0.0
0:02              252       12.9         68       25.8      122.8       25.8       27.3       19.4     1015.2       25.8       25.8        0.0        0.0        0.0       0.00        0.3       0.00       0.04        0.0
0:03              252        4.8         68       25.8      122.8       25.8       27.3       19.4     1015.1       25.8       25.8        0.0        0.0        0.0       0.00        0.5       0.00       0.04        0.0
0:06              252        4.8         68       25.8      122.8       25.8       27.3       19.4     1015.2       25.8       25.8        0.0        0.0        0.0       0.00        0.7       0.00       0.04        0.0
0:08              249       12.9         68       25.8      122.8       25.4       27.3       19.4     1015.2       25.8       25.7        0.0        0.0        0.0       0.00        0.9       0.00       0.04        0.0
0:10              250        4.8         68       25.7      122.8       25.7       27.2       19.4     1015.2       25.8       25.7        0.0        0.0        0.0       0.00        1.0       0.00       0.04        0.0
0:12              250       11.3         68       25.7      122.8       25.7       27.2       19.4     1015.2       25.8       25.7        0.0        0.0        0.0       0.00        1.2       0.00       0.04        0.0
0:14              249        8.0         68       25.7      122.8       25.7       27.2       19.4     1015.3       25.8       25.7        0.0        0.0        0.0       0.00        1.4       0.00       0.04        0.0
0:15              246        8.0         68       25.7      122.8       25.7       27.2       19.4     1015.2       25.8       25.7        0.0        0.0        0.0       0.00        1.6       0.00       0.08        0.0
0:18              246        6.4         68       25.7      122.8       25.7       27.2       19.4     1015.2       25.8       25.7        0.0        0.0        0.0       0.00        1.7       0.00       0.08        0.0
0:20              246        8.0         68       25.7      122.8       25.7       27.2       19.3     1015.2       25.8       25.7        0.0        0.0        0.0       0.00        1.9       0.00       0.08        0.0
0:22              246        6.4         69       25.6      122.8       25.6       27.2       19.5     1015.1       25.8       25.6        0.0        0.0        0.0       0.00        2.1       0.00       0.08        0.0
0:23              246       11.3         69       25.6      122.8       25.2       27.2       19.5     1015.1       25.8       25.6        0.0        0.0        0.0       0.00        2.3       0.00       0.08        0.0
0:26              244        6.4         69       25.6      122.8       25.6       27.2       19.5     1015.2       25.8       25.6        0.0        0.0        0.0       0.00        2.5       0.00       0.08        0.0
0:28              244        8.0         69       25.6      122.8       25.6       27.1       19.5     1015.1       25.8       25.6        0.0        0.0        0.0       0.00        2.8       0.00       0.08        0.0
0:30              244        8.0         69       25.6      122.8       25.6       27.1       19.5     1015.1       25.8       25.6        0.0        0.0        0.0       0.00        2.9       0.00       0.08        0.0
0:32              242       12.9         69       25.6      122.8       25.6       27.1       19.5     1015.1       25.8       25.5        0.0        0.0        0.0       0.00        3.2       0.00       0.12        0.0
0:34              241        4.8         69       25.5      122.8       25.5       27.1       19.4     1015.1       25.8       25.5        0.0        0.0        0.0       0.00        3.4       0.00       0.12        0.0
0:35              241        4.8         69       25.4      122.8       25.4       27.0       19.3     1015.1       25.8       25.4        0.0        0.0        0.0       0.00        3.6       0.00       0.12        0.0
0:38              241        8.0         69       25.4      122.8       25.0       27.0       19.3     1015.1       25.8       25.4        0.0        0.0        0.0       0.00        3.8       0.00       0.12        0.0
0:40              238        8.0         69       25.4      122.8       25.0       27.0       19.3     1015.1       25.8       25.4        0.0        0.0        0.0       0.00        4.0       0.00       0.12        0.0
0:41              238        4.8         69       25.4      122.8       25.4       27.0       19.3     1015.0       25.8       25.4        0.0        0.0        0.0       0.00        4.2       0.00       0.12        0.0
0:44              238        9.7         69       25.4      122.8       25.0       27.0       19.3     1015.1       25.8       25.4        0.0        0.0        0.0       0.00        4.4       0.00       0.12        0.0
0:46              238        6.4         69       25.4      122.8       25.4       27.0       19.3     1015.1       25.8       25.3        0.0        0.0        0.0       0.00        4.6       0.00       0.15        0.0
0:47              238        4.8         70       25.3      122.8       25.3       27.0       19.5     1015.1       25.8       25.3        0.0        0.0        0.0       0.00        4.8       0.00       0.15        0.0
0:50              238        6.4         70       25.3      122.8       25.3       27.0       19.5     1015.1       25.8       25.3        0.0        0.0        0.0       0.00        4.9       0.00       0.15        0.0
0:52              238        8.0         69       25.3      122.8       25.3       26.9       19.2     1015.0       25.8       25.3        0.0        0.0        0.0       0.00        5.1       0.00       0.15        0.0
0:54              238        6.4         69       25.3      122.8       25.3       26.9       19.2     1015.1       25.8       25.3        0.0        0.0        0.0       0.00        5.3       0.00       0.15        0.0
0:56              238        6.4         70       25.3      122.8       25.3       27.0       19.5     1015.1       25.8       25.3        0.0        0.0        0.0       0.00        5.4       0.00       0.15        0.0
0:58              238        6.4         69       25.3      122.8       25.3       26.9       19.2     1015.0       25.8       25.3        0.0        0.0        0.0       0.00        5.6       0.00       0.15        0.0
1:00              238        9.7         70       25.3      122.8       24.6       26.9       19.4     1015.0       25.8       25.3        0.0        0.0        0.0       0.00        5.8       0.00       0.15        0.0
1:02              238        8.0         70       25.3      122.8       25.3       26.9       19.4     1014.9       25.8       25.3        0.0        0.0        0.0       0.00        6.0       0.00       0.19        0.0
1:04              239       12.9         70       25.3      122.8       25.3       26.9       19.4     1015.0       25.8       25.3        0.0        0.0        0.0       0.00        6.2       0.00       0.19        0.0
1:06              239        8.0         70       25.3      122.8       24.9       26.9       19.4     1015.1       25.8       25.3        0.0        0.0        0.0       0.00        6.3       0.00       0.19        0.0
1:08              239        8.0         70       25.3      122.8       25.3       26.9       19.4     1015.0       25.8       25.3        0.0        0.0        0.0       0.00        6.5       0.00       0.19        0.0
1:10              238        6.4         70       25.2      122.8       25.2       26.9       19.4     1015.1       25.8       25.2        0.0        0.0        0.0       0.00        6.6       0.00       0.19        0.0
1:12              238        4.8         70       25.2      122.8       25.2       26.9       19.4     1015.1       25.8       25.2        0.0        0.0        0.0       0.00        6.8       0.00       0.19        0.0
1:14              238        4.8         70       25.2      122.8       25.2       26.9       19.4     1015.1       25.8       25.2        0.0        0.0        0.0       0.00        6.9       0.00       0.19        0.0
1:16              238        3.2         70       25.2      122.8       25.2       26.8       19.3     1015.1       25.8       25.2        0.0        0.0        0.0       0.00        7.1       0.00       0.22        0.0
1:18              238        8.0         70       25.2      122.8       25.2       26.8       19.3     1015.1       25.8       25.2        0.0        0.0        0.0       0.00        7.2       0.00       0.22        0.0
1:19              238        4.8         70       25.1      122.8       25.1       26.8       19.3     1015.1       25.8       25.1        0.0        0.0        0.0       0.00        7.4       0.00       0.22        0.0
1:22              238        4.8         70       25.1      122.8       25.1       26.8       19.3     1015.0       25.8       25.1        0.0        0.0        0.0       0.00        7.5       0.00       0.22        0.0
1:24              238        8.0         70       25.1      122.8       25.1       26.8       19.3     1015.0       25.8       25.1        0.0        0.0        0.0       0.00        7.6       0.00       0.22        0.0
1:25              239        6.4         70       25.1      122.8       25.1       26.7       19.2     1014.9       25.8       25.1        0.0        0.0        0.0       0.00        7.8       0.00       0.22        0.0
1:28              239        8.0         71       25.1      122.8       25.1       26.8       19.4     1015.0       25.8       25.1        0.0        0.0        0.0       0.00        8.0       0.00       0.22        0.0
1:29              240        8.0         71       25.1      122.8       25.1       26.8       19.4     1015.0       25.8       25.0        0.0        0.0        0.0       0.00        8.1       0.00       0.22        0.0
1:31              240        8.0         71       25.0      122.8       25.0       26.7       19.4     1014.9       25.8       25.0        0.0        0.0        0.0       0.00        8.4       0.00       0.25        0.0
1:33              241        4.8         71       25.0      122.8       25.0       26.7       19.4     1014.9       25.8       25.0        0.0        0.0        0.0       0.00        8.6       0.00       0.25        0.0
1:36              240        6.4         71       25.0      122.8       25.0       26.7       19.4     1014.9       25.8       25.0        0.0        0.0        0.0       0.00        8.7       0.00       0.25        0.0
1:37              240        8.0         71       25.0      122.8       24.6       26.7       19.4     1015.0       25.8       25.0        0.0        0.0        0.0       0.00        8.9       0.00       0.25        0.0
1:40              240        3.2         71       25.0      122.8       25.0       26.7       19.4     1015.1       25.8       25.0        0.0        0.0        0.0       0.00        9.0       0.00       0.25        0.0
1:42              240        4.8         71       24.9      122.8       24.9       26.7       19.3     1015.0       25.8       24.9        0.0        0.0        0.0       0.00        9.1       0.00       0.25        0.0
1:43              240        3.2         71       24.9      122.8       24.9       26.7       19.3     1015.0       25.8       24.9        0.0        0.0        0.0       0.00        9.1       0.00       0.25        0.0
1:46              240        1.6         71       24.9      122.8       24.9       26.6       19.3     1015.0       25.8       24.9        0.0        0.0        0.0       0.00        9.2       0.00       0.28        0.0
1:48              240        4.8         71       24.9      122.8       24.9       26.6       19.3     1015.0       25.8       24.9        0.0        0.0        0.0       0.00        9.3       0.00       0.28        0.0
1:50              240        3.2         71       24.9      122.8       24.9       26.6       19.3     1015.0       25.8       24.9        0.0        0.0        0.0       0.00        9.4       0.00       0.28        0.0
1:52              240        4.8         71       24.8      122.8       24.8       26.5       19.2     1015.0       25.8       24.8        0.0        0.0        0.0       0.00        9.5       0.00       0.28        0.0
1:54              240        4.8         71       24.8      122.8       24.8       26.5       19.2     1015.0       25.8       24.8        0.0        0.0        0.0       0.00        9.6       0.00       0.28        0.0
1:56              240        3.2         71       24.8      122.8       24.8       26.5       19.2     1015.0       25.8       24.8        0.0        0.0        0.0       0.00        9.7       0.00       0.28        0.0
1:58              240        4.8         71       24.8      122.8       24.8       26.5       19.2     1015.0       25.8       24.8        0.0        0.0        0.0       0.00        9.8       0.00       0.28        0.0
2:00              240        3.2         71       24.8      122.8       24.8       26.5       19.2     1015.0       25.8       24.8        0.0        0.0        0.0       0.00        9.9       0.00       0.28        0.0
2:02              240        6.4         71       24.8      122.8       24.8       26.5       19.2     1015.0       25.8       24.8        0.0        0.0        0.0       0.00       10.1       0.00       0.31        0.0
2:04              240        4.8         71       24.8      122.8       24.8       26.5       19.2     1015.0       25.8       24.8        0.0        0.0        0.0       0.00       10.2       0.00       0.31        0.0
2:06              240        3.2         71       24.8      122.8       24.8       26.5       19.2     1015.0       25.8       24.8        0.0        0.0        0.0       0.00       10.3       0.00       0.31        0.0
2:08              240        6.4         71       24.8      122.8       24.8       26.5       19.2     1015.0       25.8       24.8        0.0        0.0        0.0       0.00       10.4       0.00       0.31        0.0
2:10              240        4.8         71       24.8      122.8       24.8       26.5       19.2     1015.0       25.8       24.8        0.0        0.0        0.0       0.00       10.5       0.00       0.31        0.0
2:12              240        6.4         71       24.8      122.8       24.8       26.5       19.2     1015.0       25.8       24.8        0.0        0.0        0.0       0.00       10.6       0.00       0.31        0.0
2:14              240        4.8         71       24.8      122.8       24.8       26.5       19.2     1015.1       25.8       24.8        0.0        0.0        0.0       0.00       10.7       0.00       0.31        0.0
2:16              240        3.2         71       24.8      122.8       24.8       26.5       19.2     1015.0       25.8       24.8        0.0        0.0        0.0       0.00       10.8       0.00       0.34        0.0
2:18              240        4.8         71       24.9      122.8       24.9       26.6       19.3     1015.0       25.8       24.8        0.0        0.0        0.0       0.00       10.9       0.00       0.34        0.0
2:20              240        3.2         71       24.9      122.8       24.9       26.6       19.3     1014.9       25.8       24.8        0.0        0.0        0.0       0.00       11.0       0.00       0.34        0.0
2:21              240        4.8         71       24.9      122.8       24.9       26.6       19.3     1014.9       25.8       24.8        0.0        0.0        0.0       0.00       11.1       0.00       0.34        0.0
2:24              240        4.8         71       24.9      122.8       24.9       26.6       19.3     1014.9       25.8       24.8        0.0        0.0        0.0       0.00       11.2       0.00       0.34        0.0
2:26              240        3.2         71       24.9      122.8       24.9       26.6       19.3     1014.9       25.8       24.8        0.0        0.0        0.0       0.00       11.3       0.00       0.34        0.0
2:28              240        3.2         71       24.9      122.8       24.9       26.6       19.3     1014.9       25.8       24.8        0.0        0.0        0.0       0.00       11.4       0.00       0.34        0.0
2:30              240        1.6         71       24.9      122.8       24.9       26.7       19.3     1014.9       25.8       24.8        0.0        0.0        0.0       0.00       11.4       0.00       0.34        0.0
2:32              240        3.2         71       24.9      122.8       24.9       26.7       19.3     1014.9       25.8       24.8        0.0        0.0        0.0       0.00       11.5       0.00       0.37        0.0
2:33              240        1.6         70       24.9      122.8       24.9       26.6       19.1     1015.0       25.8       24.8        0.0        0.0        0.0       0.00       11.6       0.00       0.37        0.0
2:36              240        0.0         70       25.0      122.8       25.0       26.6       19.2     1014.9       25.8       24.8        0.0        0.0        0.0       0.00       11.6       0.00       0.37        0.0
2:38              240        0.0         70       25.0      122.8       25.0       26.6       19.2     1015.0       25.8       24.8        0.0        0.0        0.0       0.00       11.6       0.00       0.37        0.0
2:39              240        0.0         70       25.0      122.8       25.0       26.6       19.2     1015.0       25.8       24.8        0.0        0.0        0.0       0.00       11.6       0.00       0.37        0.0
2:42              241        0.0         70       25.0      122.8       25.0       26.6       19.2     1015.0       25.8       24.8        0.0        0.0        0.0       0.00       11.6       0.00       0.37        0.0
2:43              240        0.0         70       25.0      122.8       25.0       26.6       19.2     1014.9       25.8       24.8        0.0        0.0        0.0       0.00       11.6       0.00       0.37        0.0
2:46              240        0.0         70       25.0      122.8       25.0       26.6       19.2     1015.0       25.8       24.8        0.0        0.0        0.0       0.00       11.6       0.00       0.40        0.0
2:48              240        0.0         70       25.0      122.8       25.0       26.6       19.2     1014.9       25.8       24.8        0.0        0.0        0.0       0.00       11.6       0.00       0.40        0.0
2:50              240        0.0         70       25.0      122.8       25.0       26.6       19.2     1014.9       25.8       24.8        0.0        0.0        0.0       0.00       11.6       0.00       0.40        0.0
2:52              240        0.0         70       25.0      122.8       25.0       26.6       19.2     1014.9       25.8       24.8        0.0        0.0        0.0       0.00       11.6       0.00       0.40        0.0
2:54              241        0.0         70       25.0      122.8       25.0       26.6       19.2     1014.8       25.8       24.8        0.0        0.0        0.0       0.00       11.6       0.00       0.40        0.0
2:56              240        0.0         70       25.0      122.8       25.0       26.6       19.2     1014.8       25.8       24.8        0.0        0.0        0.0       0.00       11.6       0.00       0.40        0.0
2:58              240        0.0         70       25.0      122.8       25.0       26.6       19.2     1014.9       25.8       24.8        0.0        0.0        0.0       0.00       11.6       0.00       0.40        0.0
3:00              240        0.0         70       25.0      122.8       25.0       26.6       19.2     1014.8       25.8       24.8        0.0        0.0        0.0       0.00       11.6       0.00       0.40        0.0
3:02              240        0.0         70       25.0      122.8       25.0       26.6       19.2     1014.8       25.8       24.8        0.0        0.0        0.0       0.00       11.6       0.00       0.43        0.0
3:03              240        0.0         70       25.0      122.8       25.0       26.6       19.2     1014.7       25.8       24.8        0.0        0.0        0.0       0.00       11.6       0.00       0.43        0.0
3:05              240        0.0         70       25.0      122.8       25.0       26.6       19.2     1014.6       25.8       24.8        0.0        0.0        0.0       0.00       11.6       0.00       0.43        0.0
3:08              240        0.0         70       25.0      122.8       25.0       26.6       19.2     1014.6       25.8       24.8        0.0        0.0        0.0       0.00       11.6       0.00       0.43        0.0
3:09              240        3.2         70       25.0      122.8       25.0       26.6       19.2     1014.7       25.8       24.8        0.0        0.0        0.0       0.00       11.6       0.00       0.43        0.0
3:12              240        1.6         70       25.0      122.8       25.0       26.6       19.2     1014.7       25.8       24.8        0.0        0.0        0.0       0.00       11.7       0.00       0.43        0.0
3:13              240        0.0         70       24.9      122.8       24.9       26.6       19.1     1014.8       25.8       24.8        0.0        0.0        0.0       0.00       11.7       0.00       0.43        0.0
3:16              241        0.0         70       24.9      122.8       24.9       26.6       19.1     1014.7       25.8       24.8        0.0        0.0        0.0       0.00       11.7       0.00       0.46        0.0
3:18              240        0.0         70       24.9      122.8       24.9       26.6       19.1     1014.7       25.8       24.8        0.0        0.0        0.0       0.00       11.7       0.00       0.46        0.0
3:20              240        0.0         70       24.9      122.8       24.9       26.6       19.1     1014.7       25.8       24.8        0.0        0.0        0.0       0.00       11.7       0.00       0.46        0.0
3:22              240        0.0         70       24.9      122.8       24.9       26.5       19.0     1014.5       25.8       24.8        0.0        0.0        0.0       0.00       11.7       0.00       0.46        0.0
3:23              240        0.0         70       24.9      122.8       24.9       26.5       19.0     1014.5       25.8       24.8        0.0        0.0        0.0       0.00       11.7       0.00       0.46        0.0
3:26              240        4.8         70       24.9      122.8       24.9       26.5       19.0     1014.5       25.8       24.8        0.0        0.0        0.0       0.00       11.7       0.00       0.46        0.0
3:28              240        3.2         70       24.9      122.8       24.9       26.5       19.0     1014.5       25.8       24.8        0.0        0.0        0.0       0.00       11.8       0.00       0.46        0.0
3:30              240        1.6         70       24.9      122.8       24.9       26.5       19.0     1014.5       25.8       24.8        0.0        0.0        0.0       0.00       11.8       0.00       0.46        0.0
3:32              240        0.0         70       24.9      122.8       24.9       26.5       19.0     1014.5       25.8       24.8        0.0        0.0        0.0       0.00       11.8       0.00       0.49        0.0
3:34              240        0.0         70       24.9      122.8       24.9       26.5       19.0     1014.4       25.8       24.8        0.0        0.0        0.0       0.00       11.8       0.00       0.49        0.0
3:36              240        0.0         70       24.9      122.8       24.9       26.5       19.0     1014.4       25.8       24.8        0.0        0.0        0.0       0.00       11.8       0.00       0.49        0.0
3:38              240        0.0         70       24.9      122.8       24.9       26.5       19.0     1014.4       25.8       24.8        0.0        0.0        0.0       0.00       11.8       0.00       0.49        0.0
3:40              240        0.0         70       24.9      122.8       24.9       26.5       19.0     1014.5       25.8       24.8        0.0        0.0        0.0       0.00       11.8       0.00       0.49        0.0
3:41              240        0.0         70       24.9      122.8       24.9       26.5       19.0     1014.5       25.8       24.8        0.0        0.0        0.0       0.00       11.8       0.00       0.49        0.0
3:44              240        0.0         70       24.9      122.8       24.9       26.5       19.0     1014.5       25.8       24.8        0.0        0.0        0.0       0.00       11.8       0.00       0.49        0.0
3:46              240        0.0         70       24.8      122.8       24.8       26.5       19.0     1014.5       25.8       24.8        0.0        0.0        0.0       0.00       11.8       0.00       0.52        0.0
3:48              240        0.0         70       24.8      122.8       24.8       26.5       19.0     1014.4       25.8       24.8        0.0        0.0        0.0       0.00       11.8       0.00       0.52        0.0
3:50              240        0.0         70       24.8      122.8       24.8       26.5       19.0     1014.5       25.8       24.8        0.0        0.0        0.0       0.00       11.8       0.00       0.52        0.0
3:52              240        0.0         70       24.8      122.8       24.8       26.5       19.0     1014.5       25.8       24.8        0.0        0.0        0.0       0.00       11.8       0.00       0.52        0.0
3:54              240        0.0         70       24.8      122.8       24.8       26.5       19.0     1014.5       25.8       24.8        0.0        0.0        0.0       0.00       11.8       0.00       0.52        0.0
3:56              240        0.0         70       24.8      122.8       24.8       26.5       19.0     1014.4       25.8       24.8        0.0        0.0        0.0       0.00       11.8       0.00       0.52        0.0
3:58              240        0.0         70       24.8      122.8       24.8       26.5       19.0     1014.4       25.8       24.8        0.0        0.0        0.0       0.00       11.8       0.00       0.52        0.0
4:00              240        0.0         70       24.8      122.8       24.8       26.4       18.9     1014.4       25.8       24.8        0.0        0.0        0.0       0.00       11.8       0.00       0.52        0.0
4:02              240        0.0         70       24.8      122.8       24.8       26.4       18.9     1014.4       25.8       24.8        0.0        0.0        0.0       0.00       11.8       0.00       0.55        0.0
4:04              240        0.0         70       24.7      122.8       24.7       26.4       18.9     1014.4       25.8       24.7        0.0        0.0        0.0       0.00       11.8       0.00       0.55        0.0
4:05              240        0.0         70       24.7      122.8       24.7       26.4       18.9     1014.4       25.8       24.7        0.0        0.0        0.0       0.00       11.8       0.00       0.55        0.0
4:07              240        0.0         71       24.7      122.8       24.7       26.4       19.1     1014.4       25.8       24.7        0.0        0.0        0.0       0.00       11.8       0.00       0.55        0.0
4:10              240        0.0         71       24.7      122.8       24.7       26.4       19.1     1014.4       25.8       24.7        0.0        0.0        0.0       0.00       11.8       0.00       0.55        0.0
4:11              240        0.0         71       24.7      122.8       24.7       26.4       19.1     1014.4       25.8       24.6        0.0        0.0        0.0       0.00       11.8       0.00       0.55        0.0
4:14              240        0.0         71       24.6      122.8       24.6       26.3       19.0     1014.4       25.8       24.6        0.0        0.0        0.0       0.00       11.8       0.00       0.55        0.0
4:16              240        0.0         71       24.6      122.8       24.6       26.3       19.0     1014.3       25.8       24.6        0.0        0.0        0.0       0.00       11.8       0.00       0.58        0.0
4:18              240        0.0         71       24.6      122.8       24.6       26.3       19.0     1014.4       25.8       24.6        0.0        0.0        0.0       0.00       11.8       0.00       0.58        0.0
4:20              240        0.0         71       24.5      122.8       24.5       26.2       18.9     1014.4       25.8       24.5        0.0        0.0        0.0       0.00       11.8       0.00       0.58        0.0
4:22              240        0.0         71       24.5      122.8       24.5       26.2       18.9     1014.3       25.8       24.5        0.0        0.0        0.0       0.00       11.8       0.00       0.58        0.0
4:24              240        0.0         71       24.5      122.8       24.5       26.2       18.9     1014.3       25.8       24.5        0.0        0.0        0.0       0.00       11.8       0.00       0.58        0.0
4:25              240        0.0         71       24.4      122.8       24.4       26.2       18.8     1014.3       25.8       24.4        0.0        0.0        0.0       0.00       11.8       0.00       0.58        0.0
4:27              240        0.0         71       24.4      122.8       24.4       26.2       18.8     1014.4       25.8       24.4        0.0        0.0        0.0       0.00       11.8       0.00       0.58        0.0
4:30              240        0.0         71       24.4      122.8       24.4       26.1       18.8     1014.4       25.8       24.4        0.0        0.0        0.0       0.00       11.8       0.00       0.58        0.0
4:32              240        0.0         71       24.4      122.8       24.4       26.1       18.8     1014.4       25.8       24.4        0.0        0.0        0.0       0.00       11.8       0.00       0.60        0.0
4:33              240        0.0         71       24.4      122.8       24.4       26.1       18.8     1014.4       25.8       24.4        0.0        0.0        0.0       0.00       11.8       0.00       0.60        0.0
4:35              240        0.0         71       24.4      122.8       24.4       26.1       18.8     1014.3       25.8       24.4        0.0        0.0        0.0       0.00       11.8       0.00       0.60        0.0
4:37              240        0.0         71       24.4      122.8       24.4       26.1       18.8     1014.5       25.8       24.3        0.0        0.0        0.0       0.00       11.8       0.00       0.60        0.0
4:40              241        3.2         71       24.3      122.8       24.3       26.0       18.7     1014.4       25.8       24.3        0.0        0.0        0.0       0.00       11.9       0.00       0.60        0.0
4:42              240        6.4         71       24.3      122.8       24.3       26.0       18.7     1014.5       25.8       24.3        0.0        0.0        0.0       0.00       12.0       0.00       0.60        0.0
4:44              240        8.0         71       24.3      122.8       23.8       26.0       18.7     1014.5       25.8       24.3        0.0        0.0        0.0       0.00       12.1       0.00       0.60        0.0
4:46              240        6.4         71       24.3      122.8       24.3       26.0       18.7     1014.5       25.8       24.3        0.0        0.0        0.0       0.00       12.3       0.00       0.63        0.0
4:48              240        6.4         72       24.2      122.8       24.2       26.0       18.9     1014.5       25.8       24.2        0.0        0.0        0.0       0.00       12.4       0.00       0.63        0.0
4:49              241        8.0         72       24.2      122.8       24.2       26.0       18.9     1014.4       25.8       24.2        0.0        0.0        0.0       0.00       12.6       0.00       0.63        0.0
4:52              241        6.4         72       24.2      122.8       24.2       25.9       18.8     1014.5       25.8       24.2        0.0        0.0        0.0       0.00       12.7       0.00       0.63        0.0
4:54              241        9.7         72       24.1      122.8       23.3       25.9       18.8     1014.5       25.8       24.1        0.0        0.0        0.0       0.00       12.8       0.00       0.63        0.0
4:56              248        4.8         72       24.1      122.8       24.1       25.8       18.7     1014.5       25.8       24.1        0.0        0.0        0.0       0.00       12.9       0.00       0.63        0.0
4:57              257        1.6         72       24.0      122.8       24.0       25.8       18.6     1014.5       25.8       24.0        0.0        0.0        0.0       0.00       13.0       0.00       0.63        0.0
5:00              257        4.8         72       24.0      122.8       24.0       25.8       18.6     1014.5       25.8       24.0        0.0        0.0        0.0       0.00       13.1       0.00       0.63        0.0
5:02              259        4.8         72       23.9      122.8       23.9       25.7       18.5     1014.6       25.8       23.9        0.0        0.0        0.0       0.00       13.2       0.00       0.65        0.0
5:03              259        4.8         72       23.9      122.8       23.9       25.7       18.5     1014.6       25.8       23.9        0.0        0.0        0.0       0.00       13.3       0.00       0.65        0.0
5:06              259        1.6         72       23.8      122.8       23.8       25.6       18.5     1014.6       25.8       23.8        0.0        0.0        0.0       0.00       13.4       0.00       0.65        0.0
5:08              259        3.2         72       23.8      122.8       23.8       25.6       18.4     1014.5       25.8       23.8        0.0        0.0        0.0       0.00       13.5       0.00       0.65        0.0
5:10              259        6.4         72       23.8      122.8       23.8       25.6       18.4     1014.5       25.8       23.8        0.0        0.0        0.0       0.00       13.6       0.00       0.65        0.0
5:12              263        4.8         72       23.7      122.8       23.7       25.5       18.4     1014.5       25.8       23.7        0.0        0.0        0.0       0.00       13.8       0.00       0.65        0.0
5:14              265        4.8         73       23.7      122.8       23.7       25.5       18.5     1014.4       25.8       23.7        0.0        0.0        0.0       0.00       13.9       0.00       0.65        0.0
5:15              268        4.8         73       23.7      122.8       23.7       25.5       18.5     1014.5       25.8       23.7        0.0        0.0        0.0       0.00       14.0       0.00       0.66        0.0
5:18              268        9.7         73       23.6      122.8       23.6       25.5       18.5     1014.6       25.8       23.6        0.0        0.0        0.0       0.00       14.1       0.00       0.66        0.0
5:20              269        6.4         73       23.6      122.8       23.6       25.5       18.5     1014.6       25.8       23.6        0.0        0.0        0.0       0.00       14.3       0.00       0.66        0.0
5:22              269        6.4         73       23.6      122.8       23.6       25.5       18.5     1014.5       25.8       23.6        0.0        0.0        0.0       0.00       14.4       0.00       0.66        0.0
5:23              269        3.2         73       23.6      122.8       23.6       25.5       18.5     1014.6       25.8       23.6        0.0        0.0        0.0       0.00       14.6       0.00       0.66        0.0
5:26              269        6.4         74       23.6      122.8       23.6       25.5       18.7     1014.6       25.8       23.6        0.0        0.0        0.0       0.00       14.7       0.00       0.66        0.0
5:28              274        4.8         74       23.6      122.8       23.6       25.5       18.7     1014.5       25.8       23.6        0.0        0.0        0.0       0.00       14.9       0.00       0.66        0.0
5:30              275        6.4         74       23.6      122.8       23.6       25.5       18.7     1014.5       25.8       23.6        0.0        0.0        0.0       0.00       15.0       0.00       0.66        0.0
5:32              276        3.2         74       23.6      122.8       23.6       25.5       18.7     1014.5       25.8       23.6        0.0        0.0        0.0       0.00       15.2       0.00       0.68        0.0
5:34              276        4.8         74       23.6      122.8       23.6       25.5       18.7     1014.4       25.8       23.6        0.0        0.0        0.0       0.00       15.3       0.00       0.68        0.0
5:36              276        3.2         74       23.6      122.8       23.6       25.5       18.7     1014.4       25.8       23.6        0.0        0.0        0.0       0.00       15.4       0.00       0.68        0.0
5:38              276        9.7         74       23.6      122.8       22.7       25.5       18.7     1014.5       25.8       23.6        0.0        0.0        0.0       0.00       15.5       0.00       0.68        0.0
5:40              276       11.3         74       23.6      122.8       23.6       25.5       18.7     1014.5       25.8       23.6        0.0        0.0        0.0       0.00       15.7       0.00       0.68        0.0
5:42              276        3.2         74       23.6      122.8       23.6       25.5       18.7     1014.5       25.8       23.6        0.0        0.0        0.0       0.00       15.8       0.00       0.68        0.0
5:44              276        3.2         74       23.6      122.8       23.6       25.5       18.7     1014.5       25.8       23.6        0.0        0.0        0.0       0.00       15.9       0.00       0.68        0.0
5:46              276        4.8         74       23.6      122.8       23.6       25.5       18.7     1014.6       25.8       23.6        0.0        0.0        0.0       0.00       16.0       0.00       0.70        0.0
5:47              276        9.7         75       23.6      122.8       23.6       25.5       18.9     1014.6       25.8       23.6        0.0        0.0        0.0       0.00       16.1       0.00       0.70        0.0
5:50              277        3.2         75       23.6      122.8       23.6       25.6       18.9     1014.5       25.8       23.6        0.0        0.0        0.0       0.00       16.3       0.00       0.70        0.0
5:52              277        4.8         75       23.6      122.8       23.6       25.6       18.9     1014.5       25.8       23.6        0.0        0.0        0.0       0.00       16.4       0.00       0.70        0.0
5:53              281        4.8         75       23.6      122.8       23.6       25.6       18.9     1014.6       25.8       23.6        0.0        0.0        0.0       0.00       16.5       0.00       0.70        0.0
5:55              281       11.3         75       23.7      122.8       22.8       25.7       19.0     1014.7       25.8       23.6        0.0        0.0        0.0       0.00       16.7       0.00       0.70        0.0
5:58              288       11.3         75       23.7      122.8       23.7       25.7       19.0     1014.8       25.8       23.6        0.0        0.0        0.0       0.00       16.9       0.00       0.70        0.0
6:00              294        8.0         75       23.7      122.8       23.7       25.7       19.0     1014.7       25.8       23.6        0.0        0.0        0.0       0.00       17.0       0.00       0.70        0.0
6:02              296        4.8         75       23.7      122.8       23.7       25.7       19.0     1014.8       25.8       23.6        0.0        0.0        0.0       0.00       17.2       0.00       0.71        0.0
6:04              311        6.4         75       23.7      122.8       23.7       25.7       19.0     1014.7       25.8       23.6        0.0        0.0        0.0       0.00       17.3       0.00       0.71        0.0
6:06              313        4.8         74       23.8      122.8       23.8       25.7       18.9     1014.8       25.8       23.6        0.0        0.0        0.0       0.00       17.5       0.00       0.71        0.0
6:08              315        4.8         74       23.8      122.8       23.8       25.7       18.9     1014.8       25.8       23.6        0.0        0.0        0.0       0.00       17.6       0.00       0.71        0.0
6:10              315        4.8         74       23.8      122.8       23.8       25.7       18.9     1014.9       25.8       23.6        0.0        0.0        0.0       0.00       17.8       0.00       0.71        0.0
6:11              318        6.4         74       23.8      122.8       23.8       25.7       18.9     1014.9       25.8       23.6        0.0        0.0        0.0       0.00       17.9       0.00       0.71        0.0
6:14              325        8.0         74       23.8      122.8       23.8       25.7       18.9     1014.9       25.8       23.6        0.0        0.0        0.0       0.00       18.1       0.00       0.71        0.0
6:16              331        9.7         74       23.8      122.8       23.8       25.7       18.9     1014.9       25.8       23.6        0.0        0.0        0.0       0.00       18.3       0.00       0.73        0.0
6:18              333        3.2         74       23.8      122.8       23.8       25.7       18.9     1015.0       25.8       23.6        0.0        0.0        0.0       0.00       18.4       0.00       0.73        0.0
6:20              344        6.4         74       23.8      122.8       23.8       25.7       18.9     1014.9       25.8       23.6        0.0        0.0        0.0       0.00       18.6       0.00       0.73        0.0
6:22              345        8.0         74       23.9      122.8       23.9       25.8       19.0     1014.9       25.8       23.6        0.0        0.0        0.0       0.00       18.7       0.00       0.73        0.0
6:24              348        8.0         74       23.9      122.8       23.9       25.8       19.0     1014.9       25.8       23.6        0.0        0.0        0.0       0.00       18.9       0.00       0.73        0.0
6:26              351        6.4         74       23.9      122.8       23.9       25.8       19.0     1014.9       25.8       23.6        0.0        0.0        0.0       0.00       19.0       0.00       0.73        0.0
6:28              351        6.4         74       23.9      122.8       23.9       25.8       19.0     1014.9       25.8       23.6        0.0        0.0        0.0       0.00       19.1       0.00       0.73        0.0
6:30              355        4.8         74       23.9      122.8       23.9       25.8       19.0     1014.8       25.8       23.6        0.0        0.0        0.0       0.00       19.3       0.00       0.73        0.0
6:32              355        1.6         74       23.9      122.8       23.9       25.8       19.0     1014.9       25.8       23.6        0.0        0.0        0.0       0.00       19.4       0.00       0.75        0.0
6:34              355        6.4         74       23.9      122.8       23.9       25.8       19.0     1014.9       25.8       23.6        0.0        0.0        0.0       0.00       19.5       0.00       0.75        0.0
6:36              355        8.0         74       23.9      122.8       23.9       25.8       19.0     1014.9       25.8       23.6        0.0        0.0        0.0       0.00       19.7       0.00       0.75        0.0
6:37              355        6.4         74       23.8      122.8       23.8       25.7       18.9     1014.9       25.8       23.6        0.0        0.0        0.0       0.00       19.8       0.00       0.75        0.0
6:40              355        8.0         74       23.9      122.8       23.9       25.8       19.0     1014.9       25.8       23.6        0.0        0.0        0.0       0.00       19.9       0.00       0.75        0.0
6:42              355        6.4         74       23.8      122.8       23.8       25.7       18.9     1014.9       25.8       23.6        0.0        0.0        0.0       0.00       20.0       0.00       0.75        0.0
6:44              355        6.4         75       23.8      122.8       23.8       25.8       19.1     1015.0       25.8       23.6        0.0        0.0        0.0       0.00       20.2       0.00       0.75        0.0
6:46              355        4.8         75       23.9      122.8       23.9       25.9       19.2     1015.0       25.8       23.6        0.0        0.0        0.0       0.00       20.4       0.00       0.77        0.0
6:48              355        8.0         74       23.9      122.8       23.9       25.8       19.0     1014.9       25.8       23.6        0.0        0.0        0.0       0.00       20.5       0.00       0.77        0.0
6:49              355        3.2         74       23.9      122.8       23.9       25.9       19.0     1015.0       25.8       23.6        0.0        0.0        0.0       0.00       20.6       0.00       0.77        0.0
6:52              355        8.0         74       23.9      122.8       23.9       25.9       19.0     1015.0       25.8       23.6        0.0        0.0        0.0       0.00       20.8       0.00       0.77        0.0
6:54              355        8.0         74       24.0      122.8       24.0       25.9       19.1     1015.0       25.8       23.6        0.0        0.0        0.0       0.00       20.9       0.00       0.77        0.0
6:56              355        6.4         75       24.1      122.8       24.1       26.0       19.4     1014.9       25.8       23.6        0.0        0.0        0.0       0.00       21.1       0.00       0.77        0.0
6:58              355        9.7         74       24.1      122.8       23.6       26.0       19.2     1015.0       25.8       23.6        0.0        0.0        0.0       0.00       21.3       0.00       0.77        0.0
7:00              355        3.2         74       24.2      122.8       24.2       26.1       19.3     1015.0       25.8       23.6        0.0        0.0        0.0       0.00       21.4       0.00       0.77        0.0
7:02              360        8.0         74       24.3      122.8       24.3       26.2       19.4     1015.0       25.8       23.6        0.0        0.0        0.0       0.00       21.5       0.00       0.80        0.0
7:04              360        9.7         73       24.3      122.8       24.3       26.2       19.2     1015.0       25.8       23.6        0.0        0.0        0.0       0.00       21.7       0.00       0.80        0.0
7:06               15       12.9         73       24.4      122.8       24.4       26.2       19.2     1015.0       25.8       23.6        0.0        0.0        0.0       0.00       22.0       0.00       0.80        0.0
7:08               15       12.9         73       24.4      122.8       24.4       26.2       19.2     1015.1       25.8       23.6        0.0        0.0        0.0       0.00       22.2       0.00       0.80        0.0
7:10               16       11.3         73       24.4      122.8       24.4       26.3       19.3     1015.2       25.8       23.6        0.0        0.0        0.0       0.00       22.5       0.00       0.80        0.0
7:12               17       12.9         72       24.4      122.8       24.4       26.2       19.1     1015.2       25.8       23.6        0.0        0.0        0.0       0.00       22.7       0.00       0.80        0.0
7:14               17        6.4         72       24.4      122.8       24.4       26.2       19.1     1015.2       25.8       23.6        0.0        0.0        0.0       0.00       22.8       0.00       0.80        0.0
7:16               21       12.9         72       24.4      122.8       24.4       26.2       19.1     1015.2       25.8       23.6        0.0        0.0        0.0       0.00       23.1       0.00       0.82        0.0
7:18               22        8.0         72       24.4      122.8       24.4       26.2       19.1     1015.2       25.8       23.6        0.0        0.0        0.0       0.00       23.3       0.00       0.82        0.0
7:20               23       14.5         72       24.5      122.8       24.5       26.3       19.1     1015.1       25.8       23.6        0.0        0.0        0.0       0.00       23.6       0.00       0.82        0.0
7:21               23        9.7         72       24.5      122.8       23.7       26.3       19.1     1015.1       25.8       23.6        0.0        0.0        0.0       0.00       23.8       0.00       0.82        0.0
7:24               23        6.4         72       24.5      122.8       24.5       26.3       19.1     1015.1       25.8       23.6        0.0        0.0        0.0       0.00       24.1       0.00       0.82        0.0
7:26               24        6.4         72       24.5      122.8       24.5       26.3       19.1     1015.1       25.8       23.6        0.0        0.0        0.0       0.00       24.3       0.00       0.82        0.0
7:28               24       12.9         72       24.5      122.8       23.7       26.3       19.1     1015.1       25.8       23.6        0.0        0.0        0.0       0.00       24.5       0.00       0.82        0.0
7:30               24       12.9         72       24.6      122.8       24.6       26.3       19.2     1015.1       25.8       23.6        0.0        0.0        0.0       0.00       24.8       0.00       0.82        0.0
7:32               27       12.9         71       24.6      122.8       24.1       26.3       19.0     1015.1       25.8       23.6        0.0        0.0        0.0       0.00       25.1       0.00       0.85        0.0
7:34               27        9.7         72       24.6      122.8       24.6       26.4       19.2     1015.2       25.8       23.6        0.0        0.0        0.0       0.00       25.3       0.00       0.85        0.0
7:36               28        4.8         71       24.7      122.8       24.7       26.4       19.1     1015.1       25.8       23.6        0.0        0.0        0.0       0.00       25.5       0.00       0.85        0.0
7:38               27       12.9         71       24.8      122.8       24.3       26.5       19.2     1015.1       25.8       23.6        0.0        0.0        0.0       0.00       25.7       0.00       0.85        0.0
7:40               31       16.1         71       24.8      122.8       23.5       26.5       19.2     1015.1       25.8       23.6        0.0        0.0        0.0       0.00       26.0       0.00       0.85        0.0
7:42               31        6.4         71       24.9      122.8       24.9       26.6       19.3     1015.1       25.8       23.6        0.0        0.0        0.0       0.00       26.2       0.00       0.85        0.0
7:44               31        9.7         71       25.0      122.8       24.6       26.7       19.4     1015.2       25.8       23.6        0.0        0.0        0.0       0.00       26.4       0.00       0.85        0.0
7:46               31        8.0         70       25.1      122.8       25.1       26.7       19.2     1015.2       25.8       23.6        0.0        0.0        0.0       0.00       26.6       0.00       0.88        0.0
7:48               30        8.0         70       25.2      122.8       25.2       26.8       19.3     1015.1       25.8       23.6        0.0        0.0        0.0       0.00       26.8       0.00       0.88        0.0
7:50               30        9.7         69       25.2      122.8       24.8       26.8       19.1     1015.1       25.8       23.6        0.0        0.0        0.0       0.00       27.1       0.00       0.88        0.0
7:52               30        6.4         69       25.3      122.8       25.3       26.9       19.2     1015.1       25.8       23.6        0.0        0.0        0.0       0.00       27.3       0.00       0.88        0.0
7:54               30       12.9         69       25.4      122.8       24.1       27.0       19.3     1015.1       25.8       23.6        0.0        0.0        0.0       0.00       27.5       0.00       0.88        0.0
7:56               30        9.7         69       25.5      122.8       24.8       27.1       19.4     1015.0       25.8       23.6        0.0        0.0        0.0       0.00       27.8       0.00       0.88        0.0
7:58               28        8.0         69       25.6      122.8       25.6       27.1       19.5     1015.1       25.8       23.6        0.0        0.0        0.0       0.00       28.0       0.00       0.88        0.0
8:00               29        4.8         68       25.7      122.8       25.7       27.2       19.3     1015.0       25.8       23.6        0.0        0.0        0.0       0.00       28.2       0.00       0.88        0.0
8:02               28        8.0         68       25.7      122.8       25.3       27.2       19.4     1015.0       25.8       23.6        0.0        0.0        0.0       0.00       28.5       0.00       0.92        0.0
8:04               28       12.9         68       25.8      122.8       25.8       27.3       19.5     1015.0       25.8       23.6        0.0        0.0        0.0       0.00       28.7       0.00       0.92        0.0
8:06               29       12.9         68       25.9      122.8       25.5       27.4       19.5     1015.1       25.9       23.6        0.0        0.0        0.0       0.00       28.9       0.00       0.92        0.0
8:08               30       12.9         67       26.0      122.8       25.6       27.4       19.4     1015.1       26.0       23.6        0.0        0.0        0.0       0.00       29.2       0.00       0.92        0.0
8:10               32       16.1         67       26.1      122.8       25.7       27.6       19.5     1015.0       26.1       23.6        0.0        0.0        0.0       0.00       29.4       0.00       0.92        0.0
8:12               33        8.0         66       26.2      122.8       26.2       27.5       19.3     1015.0       26.2       23.6        0.0        0.0        0.0       0.00       29.7       0.00       0.92        0.0
8:14               32       12.9         66       26.2      122.8       25.1       27.6       19.4     1015.0       26.2       23.6        0.0        0.0        0.0       0.00       29.9       0.00       0.92        0.0
8:16               33       16.1         66       26.3      122.8       25.2       27.7       19.5     1015.1       26.3       23.6        0.0        0.0        0.0       0.00       30.2       0.00       0.96        0.0
8:17               26       14.5         66       26.3      122.8       26.0       27.7       19.5     1015.0       26.4       23.6        0.0        0.0        0.0       0.00       30.6       0.00       0.96        0.0
8:20               30        9.7         65       26.4      122.8       26.0       27.7       19.3     1015.0       26.4       23.6        0.0        0.0        0.0       0.00       30.9       0.00       0.96        0.0
8:22               28       14.5         65       26.4      122.8       25.3       27.7       19.3     1014.9       26.4       23.6        0.0        0.0        0.0       0.00       31.2       0.00       0.96        0.0
8:23               27       16.1         65       26.4      122.8       25.3       27.7       19.3     1015.0       26.4       23.6        0.0        0.0        0.0       0.00       31.6       0.00       0.96        0.0
8:26               46       17.7         65       26.4      122.8       25.6       27.8       19.3     1014.9       26.4       23.6        0.0        0.0        0.0       0.00       31.9       0.00       0.96        0.0
8:28               50        9.7         65       26.5      122.8       25.9       27.8       19.4     1014.9       26.5       23.6        0.0        0.0        0.0       0.00       32.2       0.00       0.96        0.0
8:30               58       11.3         65       26.6      122.8       26.0       27.9       19.4     1015.0       26.6       23.6        0.0        0.0        0.0       0.00       32.5       0.00       0.96        0.0
8:32               63       12.9         64       26.7      122.8       25.6       27.9       19.3     1015.0       26.7       23.6        0.0        0.0        0.0       0.00       32.9       0.00       1.01        0.0
8:34               57       14.5         64       26.8      122.8       26.2       28.1       19.4     1015.0       26.8       23.6        0.0        0.0        0.0       0.00       33.2       0.00       1.01        0.0
8:36               64       22.5         64       26.9      122.8       25.3       28.2       19.5     1015.1       26.9       23.6        0.0        0.0        0.0       0.00       33.6       0.00       1.01        0.0
8:38               63       14.5         63       27.0      122.8       26.7       28.3       19.4     1015.0       27.0       23.6        0.0        0.0        0.0       0.00       34.1       0.00       1.01        0.0
8:40               65       17.7         63       27.1      122.8       26.1       28.4       19.4     1015.0       27.1       23.6        0.0        0.0        0.0       0.00       34.4       0.00       1.01        0.0
8:42               53       16.1         63       27.1      122.8       27.1       28.5       19.5     1015.0       27.1       23.6        0.0        0.0        0.0       0.00       34.7       0.00       1.01        0.0
8:44               45        8.0         63       27.1      122.8       27.1       28.5       19.5     1015.0       27.2       23.6        0.0        0.0        0.0       0.00       35.0       0.00       1.01        0.0
8:46               46        9.7         63       27.2      122.8       26.6       28.5       19.5     1015.1       27.2       23.6        0.0        0.0        0.0       0.00       35.2       0.00       1.06        0.0
8:48               48        6.4         63       27.2      122.8       27.2       28.6       19.6     1015.1       27.2       23.6        0.0        0.0        0.0       0.00       35.4       0.00       1.06        0.0
8:50               50        6.4         63       27.3      122.8       27.3       28.7       19.6     1015.1       27.3       23.6        0.0        0.0        0.0       0.00       35.6       0.00       1.06        0.0
8:52               45       14.5         63       27.4      122.8       26.2       28.9       19.7     1015.1       27.4       23.6        0.0        0.0        0.0       0.00       35.8       0.00       1.06        0.0
8:54               55       14.5         62       27.5      122.8       27.5       28.9       19.6     1015.2       27.5       23.6        0.0        0.0        0.0       0.00       36.1       0.00       1.06        0.0
8:56               56       14.5         62       27.6      122.8       27.1       29.0       19.6     1015.2       27.6       23.6        0.0        0.0        0.0       0.00       36.4       0.00       1.06        0.0
8:58               56        4.8         62       27.6      122.8       27.6       29.1       19.7     1015.2       27.6       23.6        0.0        0.0        0.0       0.00       36.5       0.00       1.06        0.0
9:00               56        6.4         62       27.7      122.8       27.7       29.3       19.8     1015.1       27.7       23.6        0.0        0.0        0.0       0.00       36.7       0.00       1.06        0.0
9:01               54        8.0         61       27.8      122.8       27.8       29.2       19.6     1015.2       27.8       23.6        0.0        0.0        0.0       0.00       37.0       0.00       1.12        0.0
9:04               57       19.3         61       27.9      122.8       27.2       29.4       19.7     1015.2       27.9       23.6        0.0        0.0        0.0       0.00       37.2       0.00       1.12        0.0
9:06               65       14.5         60       28.0      122.8       28.0       29.4       19.5     1015.3       28.0       23.6        0.0        0.0        0.0       0.00       37.6       0.00       1.12        0.0
9:07               65        9.7         59       28.1      122.8       27.7       29.5       19.4     1015.2       28.1       23.6        0.0        0.0        0.0       0.00       38.0       0.00       1.12        0.0
9:10               65       17.7         59       28.2      122.8       27.0       29.6       19.4     1015.3       28.2       23.6        0.0        0.0        0.0       0.00       38.3       0.00       1.12        0.0
9:12               66        8.0         59       28.3      122.8       28.3       29.7       19.5     1015.2       28.3       23.6        0.0        0.0        0.0       0.00       38.5       0.00       1.12        0.0
9:14               66        8.0         59       28.3      122.8       28.1       29.8       19.6     1015.3       28.3       23.6        0.0        0.0        0.0       0.00       38.7       0.00       1.12        0.0
9:16               58       14.5         58       28.4      122.8       27.5       29.9       19.4     1015.2       28.4       23.6        0.0        0.0        0.0       0.00       39.0       0.00       1.19        0.0
9:18               60        4.8         58       28.5      122.8       28.5       30.0       19.4     1015.2       28.5       23.6        0.0        0.0        0.0       0.00       39.2       0.00       1.19        0.0
9:20               57       11.3         57       28.6      122.8       28.2       30.0       19.3     1015.2       28.6       23.6        0.0        0.0        0.0       0.00       39.5       0.00       1.19        0.0
9:22               69       17.7         57       28.7      122.8       28.3       30.2       19.4     1015.1       28.7       23.6        0.0        0.0        0.0       0.00       39.8       0.00       1.19        0.0
9:24               63       14.5         57       28.8      122.8       27.9       30.2       19.4     1015.2       28.8       23.6        0.0        0.0        0.0       0.00       40.1       0.00       1.19        0.0
9:26               80       19.3         56       28.8      122.8       28.0       30.2       19.2     1015.3       28.8       23.6        0.0        0.0        0.0       0.00       40.5       0.00       1.19        0.0
9:28               64       16.1         56       28.9      122.8       27.9       30.3       19.2     1015.2       28.9       23.6        0.0        0.0        0.0       0.00       40.9       0.00       1.19        0.0
9:30               69       17.7         56       29.0      122.8       28.2       30.4       19.3     1015.2       29.0       23.6        0.0        0.0        0.0       0.00       41.3       0.00       1.19        0.0
9:32               63       16.1         56       29.1      122.8       28.8       30.5       19.4     1015.2       29.1       23.6        0.0        0.0        0.0       0.00       41.7       0.00       1.26        0.0
9:34               59        9.7         56       29.1      122.8       29.1       30.6       19.4     1015.2       29.1       23.6        0.0        0.0        0.0       0.00       41.9       0.00       1.26        0.0
9:36               69       19.3         56       29.1      122.8       29.1       30.6       19.4     1015.1       29.2       23.6        0.0        0.0        0.0       0.00       42.2       0.00       1.26        0.0
9:38               88       16.1         55       29.2      122.8       29.0       30.6       19.3     1015.2       29.2       23.6        0.0        0.0        0.0       0.00       42.7       0.00       1.26        0.0
9:40               76       11.3         55       29.3      122.8       29.1       30.8       19.4     1015.1       29.3       23.6        0.0        0.0        0.0       0.00       43.0       0.00       1.26        0.0
9:42               34        9.7         55       29.4      122.8       29.4       31.0       19.5     1015.2       29.4       23.6        0.0        0.0        0.0       0.00       43.4       0.00       1.26        0.0
9:44               75       14.5         55       29.5      122.8       28.8       31.1       19.5     1015.1       29.5       23.6        0.0        0.0        0.0       0.00       43.7       0.00       1.26        0.0
9:46               65       16.1         54       29.5      122.8       28.8       30.9       19.2     1015.1       29.5       23.6        0.0        0.0        0.0       0.00       44.2       0.00       1.34        0.0
9:48               46       16.1         54       29.5      122.8       29.2       30.9       19.2     1015.1       29.6       23.6        0.0        0.0        0.0       0.00       44.6       0.00       1.34        0.0
9:50               67       17.7         54       29.6      122.8       29.6       31.0       19.3     1015.0       29.6       23.6        0.0        0.0        0.0       0.00       45.0       0.00       1.34        0.0
9:51               57       16.1         55       29.6      122.8       28.9       31.2       19.6     1015.0       29.6       23.6        0.0        0.0        0.0       0.00       45.3       0.00       1.34        0.0
9:54               52       14.5         54       29.7      122.8       29.4       31.3       19.4     1015.1       29.7       23.6        0.0        0.0        0.0       0.00       45.6       0.00       1.34        0.0
9:56               55       11.3         54       29.8      122.8       29.8       31.4       19.5     1014.9       29.8       23.6        0.0        0.0        0.0       0.00       45.9       0.00       1.34        0.0
9:57               82       17.7         54       29.9      122.8       29.6       31.6       19.6     1015.0       29.9       23.6        0.0        0.0        0.0       0.00       46.2       0.00       1.34        0.0
10:00              51       19.3         53       30.1      122.8       29.8       31.6       19.4     1015.0       30.1       23.6        0.0        0.0        0.0       0.00       46.6       0.00       1.34        0.0
10:02              80       22.5         53       30.1      122.8       29.4       31.7       19.5     1014.9       30.1       23.6        0.0        0.0        0.0       0.00       47.0       0.00       1.42        0.0
10:03              89       17.7         52       30.2      122.8       30.2       31.7       19.3     1014.9       30.2       23.6        0.0        0.0        0.0       0.00       47.5       0.00       1.42        0.0
10:06              63       17.7         52       30.3      122.8       30.3       31.8       19.3     1014.8       30.3       23.6        0.0        0.0        0.0       0.00       47.8       0.00       1.42        0.0
10:08              57       16.1         52       30.4      122.8       30.1       32.0       19.4     1014.8       30.4       23.6        0.0        0.0        0.0       0.00       48.1       0.00       1.42        0.0
10:10              55       17.7         51       30.5      122.8       30.0       32.0       19.2     1014.8       30.5       23.6        0.0        0.0        0.0       0.00       48.6       0.00       1.42        0.0
10:12              55        9.7         51       30.5      122.8       30.3       32.0       19.2     1014.8       30.5       23.6        0.0        0.0        0.0       0.00       48.9       0.00       1.42        0.0
10:14              91       16.1         51       30.6      122.8       30.6       32.1       19.3     1015.0       30.6       23.6        0.0        0.0        0.0       0.00       49.3       0.00       1.42        0.0
10:15              96       16.1         51       30.6      122.8       30.6       32.2       19.3     1014.9       30.6       23.6        0.0        0.0        0.0       0.00       49.8       0.00       1.51        0.0
10:18             126       20.9         50       30.7      122.8       30.6       32.2       19.1     1014.7       30.7       23.6        0.0        0.0        0.0       0.00       50.1       0.00       1.51        0.0
10:20              78       24.1         50       30.8      122.8       30.4       32.3       19.2     1014.9       30.8       23.6        0.0        0.0        0.0       0.00       50.6       0.00       1.51        0.0
10:22              76       14.5         49       30.9      122.8       30.8       32.2       18.9     1014.9       30.9       23.6        0.0        0.0        0.0       0.00       51.1       0.00       1.51        0.0
10:24              88       16.1         49       30.9      122.8       30.5       32.2       18.9     1014.8       30.9       23.6        0.0        0.0        0.0       0.00       51.4       0.00       1.51        0.0
10:26              31       17.7         49       30.9      122.8       30.4       32.3       19.0     1014.8       30.9       23.6        0.0        0.0        0.0       0.00       51.9       0.00       1.51        0.0
10:28              63       19.3         50       30.9      122.8       30.4       32.5       19.3     1014.8       31.0       23.6        0.0        0.0        0.0       0.00       52.3       0.00       1.51        0.0
10:29              80       22.5         50       30.9      122.8       30.4       32.5       19.3     1014.8       31.0       23.6        0.0        0.0        0.0       0.00       52.9       0.00       1.51        0.0
10:32              74       16.1         50       30.9      122.8       30.7       32.5       19.3     1014.9       31.0       23.6        0.0        0.0        0.0       0.00       53.4       0.00       1.61        0.0
10:34              67       29.0         50       30.9      122.8       30.3       32.5       19.3     1014.9       31.0       23.6        0.0        0.0        0.0       0.00       54.0       0.00       1.61        0.0
10:36              71       17.7         51       30.9      122.8       30.5       32.7       19.6     1014.9       31.0       23.6        0.0        0.0        0.0       0.00       54.5       0.00       1.61        0.0
10:38              78       24.1         51       30.9      122.8       30.4       32.6       19.6     1014.8       31.0       23.6        0.0        0.0        0.0       0.00       55.0       0.00       1.61        0.0
10:40              66       17.7         51       30.9      122.8       30.7       32.6       19.6     1014.9       31.0       23.6        0.0        0.0        0.0       0.00       55.5       0.00       1.61        0.0
10:41              65       22.5         51       30.9      122.8       30.4       32.7       19.6     1014.8       31.0       23.6        0.0        0.0        0.0       0.00       56.0       0.00       1.61        0.0
10:43              61       20.9         51       30.9      122.8       30.4       32.7       19.6     1014.9       31.0       23.6        0.0        0.0        0.0       0.00       56.7       0.00       1.61        0.0
10:46             100       25.7         51       30.9      122.8       30.5       32.7       19.6     1014.8       31.0       23.6        0.0        0.0        0.0       0.00       57.2       0.00       1.70        0.0
10:47              73       16.1         52       31.0      122.8       30.7       33.0       20.0     1014.8       31.0       23.6        0.0        0.0        0.0       0.00       57.6       0.00       1.70        0.0
10:50              86       17.7         52       31.1      122.8       30.9       33.1       20.1     1014.8       31.1       23.6        0.0        0.0        0.0       0.00       58.0       0.00       1.70        0.0
10:52              66       17.7         52       31.1      122.8       30.9       33.2       20.1     1014.8       31.1       23.6        0.0        0.0        0.0       0.00       58.6       0.00       1.70        0.0
10:54              40       22.5         52       31.2      122.8       30.7       33.3       20.2     1014.8       31.2       23.6        0.0        0.0        0.0       0.00       59.1       0.00       1.70        0.0
10:56              53       11.3         52       31.2      122.8       31.0       33.4       20.2     1014.8       31.2       23.6        0.0        0.0        0.0       0.00       59.5       0.00       1.70        0.0
10:58              72       25.7         52       31.2      122.8       30.8       33.4       20.2     1014.7       31.2       23.6        0.0        0.0        0.0       0.00       60.0       0.00       1.70        0.0
11:00              71       22.5         52       31.2      122.8       30.7       33.3       20.2     1014.8       31.2       23.6        0.0        0.0        0.0       0.00       60.6       0.00       1.70        0.0
11:02              76       16.1         52       31.2      122.8       30.8       33.3       20.2     1014.8       31.2       23.6        0.0        0.0        0.0       0.00       61.1       0.00       1.80        0.0
11:04              79       12.9         52       31.2      122.8       31.2       33.3       20.2     1014.8       31.2       23.6        0.0        0.0        0.0       0.00       61.5       0.00       1.80        0.0
11:06              67       19.3         52       31.2      122.8       30.8       33.4       20.2     1014.7       31.2       23.6        0.0        0.0        0.0       0.00       61.9       0.00       1.80        0.0
11:08              78       19.3         52       31.2      122.8       30.8       33.4       20.2     1014.7       31.2       23.6        0.0        0.0        0.0       0.00       62.5       0.00       1.80        0.0
11:10             101       11.3         52       31.3      122.8       31.1       33.5       20.3     1014.7       31.3       23.6        0.0        0.0        0.0       0.00       62.9       0.00       1.80        0.0
11:12              80       14.5         52       31.4      122.8       31.1       33.7       20.4     1014.6       31.4       23.6        0.0        0.0        0.0       0.00       63.2       0.00       1.80        0.0
11:14              82       16.1         52       31.4      122.8       31.2       33.8       20.4     1014.5       31.4       23.6        0.0        0.0        0.0       0.00       63.5       0.00       1.80        0.0
11:16              78       14.5         51       31.6      122.8       31.3       33.8       20.2     1014.6       31.6       23.6        0.0        0.0        0.0       0.00       64.0       0.00       1.89        0.0
11:18              75        8.0         51       31.7      122.8       31.7       34.0       20.3     1014.6       31.7       23.6        0.0        0.0        0.0       0.00       64.3       0.00       1.89        0.0
11:20              71       14.5         51       31.7      122.8       31.5       34.1       20.4     1014.6       31.7       23.6        0.0        0.0        0.0       0.00       64.8       0.00       1.89        0.0
11:22              59       17.7         50       31.8      122.8       31.6       34.1       20.1     1014.5       31.9       23.6        0.0        0.0        0.0       0.00       65.3       0.00       1.89        0.0
11:23              40       16.1         50       31.9      122.8       31.6       34.2       20.2     1014.5       31.9       23.6        0.0        0.0        0.0       0.00       65.8       0.00       1.89        0.0
11:26              36       22.5         50       31.8      122.8       31.5       34.1       20.1     1014.5       31.9       23.6        0.0        0.0        0.0       0.00       66.1       0.00       1.89        0.0
11:28              63       17.7         50       31.7      122.8       31.7       33.9       20.0     1014.5       31.9       23.6        0.0        0.0        0.0       0.00       66.6       0.00       1.89        0.0
11:30              63       16.1         51       31.6      122.8       31.5       33.9       20.2     1014.4       31.9       23.6        0.0        0.0        0.0       0.00       67.0       0.00       1.89        0.0
11:32              82       17.7         51       31.7      122.8       31.3       34.0       20.3     1014.5       31.9       23.6        0.0        0.0        0.0       0.00       67.5       0.00       1.99        0.0
11:34              69       14.5         51       31.8      122.8       31.7       34.2       20.4     1014.4       31.9       23.6        0.0        0.0        0.0       0.00       67.9       0.00       1.99        0.0
11:36              38       17.7         50       31.9      122.8       31.7       34.2       20.2     1014.4       31.9       23.6        0.0        0.0        0.0       0.00       68.2       0.00       1.99        0.0
11:37              89       20.9         50       31.9      122.8       31.7       34.2       20.2     1014.4       31.9       23.6        0.0        0.0        0.0       0.00       68.6       0.00       1.99        0.0
11:40              85       22.5         50       32.0      122.8       31.7       34.4       20.3     1014.4       32.0       23.6        0.0        0.0        0.0       0.00       69.0       0.00       1.99        0.0
11:42              77       12.9         50       32.1      122.8       32.1       34.6       20.4     1014.4       32.1       23.6        0.0        0.0        0.0       0.00       69.5       0.00       1.99        0.0
11:44              77       14.5         50       32.2      122.8       32.1       34.7       20.4     1014.3       32.2       23.6        0.0        0.0        0.0       0.00       69.8       0.00       1.99        0.0
11:46              71       12.9         49       32.3      122.8       32.2       34.6       20.2     1014.4       32.3       23.6        0.0        0.0        0.0       0.00       70.1       0.00       2.10        0.0
11:48              67       19.3         49       32.4      122.8       32.2       34.8       20.3     1014.2       32.4       23.6        0.0        0.0        0.0       0.00       70.6       0.00       2.10        0.0
11:50              65       16.1         48       32.4      122.8       32.4       34.7       20.0     1014.3       32.4       23.6        0.0        0.0        0.0       0.00       71.1       0.00       2.10        0.0
11:52              96       19.3         48       32.4      122.8       32.4       34.7       20.0     1014.2       32.4       23.6        0.0        0.0        0.0       0.00       71.5       0.00       2.10        0.0
11:54              65       14.5         48       32.6      122.8       32.6       34.9       20.1     1014.3       32.6       23.6        0.0        0.0        0.0       0.00       72.0       0.00       2.10        0.0
11:56              70       20.9         47       32.6      122.8       32.5       34.7       19.8     1014.2       32.6       23.6        0.0        0.0        0.0       0.00       72.4       0.00       2.10        0.0
11:58              80        4.8         47       32.7      122.8       32.7       34.9       19.9     1014.2       32.7       23.6        0.0        0.0        0.0       0.00       72.7       0.00       2.10        0.0
12:00              96       17.7         47       32.8      122.8       32.7       35.0       20.0     1014.2       32.8       23.6        0.0        0.0        0.0       0.00       73.1       0.00       2.10        0.0
12:02              71       20.9         47       32.9      122.8       32.9       35.3       20.1     1014.0       32.9       23.6        0.0        0.0        0.0       0.00       73.5       0.00       2.21        0.0
12:04              71       12.9         46       33.0      122.8       33.0       35.2       19.8     1014.0       33.0       23.6        0.0        0.0        0.0       0.00       73.8       0.00       2.21        0.0
12:06              56       17.7         46       33.1      122.8       33.1       35.3       19.9     1014.0       33.1       23.6        0.0        0.0        0.0       0.00       74.2       0.00       2.21        0.0
12:08              70       20.9         46       33.2      122.8       33.2       35.5       20.0     1014.0       33.2       23.6        0.0        0.0        0.0       0.00       74.7       0.00       2.21        0.0
12:09              56       11.3         46       33.3      122.8       33.3       35.7       20.1     1013.9       33.3       23.6        0.0        0.0        0.0       0.00       75.1       0.00       2.21        0.0
12:12              44       20.9         45       33.3      122.8       33.3       35.4       19.7     1013.9       33.3       23.6        0.0        0.0        0.0       0.00       75.7       0.00       2.21        0.0
12:14              93       17.7         46       33.3      122.8       33.3       35.8       20.2     1013.9       33.3       23.6        0.0        0.0        0.0       0.00       76.1       0.00       2.21        0.0
12:16              78        8.0         46       33.4      122.8       33.4       35.9       20.2     1013.8       33.4       23.6        0.0        0.0        0.0       0.00       76.4       0.00       2.33        0.0
12:18              74       14.5         45       33.4      122.8       33.4       35.8       19.9     1013.8       33.4       23.6        0.0        0.0        0.0       0.00       76.8       0.00       2.33        0.0
12:20              49       16.1         45       33.6      122.8       33.6       36.0       20.0     1013.8       33.6       23.6        0.0        0.0        0.0       0.00       77.2       0.00       2.33        0.0
12:21              78       19.3         44       33.6      122.8       33.6       35.8       19.7     1013.8       33.6       23.6        0.0        0.0        0.0       0.00       77.7       0.00       2.33        0.0
12:24              96       12.9         44       33.6      122.8       33.6       35.8       19.7     1013.8       33.6       23.6        0.0        0.0        0.0       0.00       78.2       0.00       2.33        0.0
12:26             105       22.5         44       33.6      122.8       33.6       35.8       19.7     1013.8       33.6       23.6        0.0        0.0        0.0       0.00       78.7       0.00       2.33        0.0
12:27              87       17.7         44       33.6      122.8       33.6       35.8       19.7     1013.8       33.6       23.6        0.0        0.0        0.0       0.00       79.2       0.00       2.33        0.0
12:30              98       20.9         44       33.6      122.8       33.6       35.8       19.7     1013.7       33.6       23.6        0.0        0.0        0.0       0.00       79.6       0.00       2.33        0.0
12:32              36       17.7         43       33.7      122.8       33.7       35.6       19.4     1013.7       33.7       23.6        0.0        0.0        0.0       0.00       80.0       0.00       2.45        0.0
12:34              94       19.3         43       33.7      122.8       33.7       35.7       19.4     1013.6       33.7       23.6        0.0        0.0        0.0       0.00       80.5       0.00       2.45        0.0
12:36              67       17.7         43       33.8      122.8       33.8       35.9       19.5     1013.6       33.8       23.6        0.0        0.0        0.0       0.00       80.8       0.00       2.45        0.0
12:38              85       25.7         43       33.9      122.8       33.9       36.0       19.6     1013.6       33.9       23.6        0.0        0.0        0.0       0.00       81.3       0.00       2.45        0.0
12:40              78       17.7         42       33.9      122.8       33.9       35.9       19.2     1013.6       33.9       23.6        0.0        0.0        0.0       0.00       81.7       0.00       2.45        0.0
12:42              93       20.9         42       33.9      122.8       33.9       35.9       19.2     1013.5       34.0       23.6        0.0        0.0        0.0       0.00       82.2       0.00       2.45        0.0
12:44              90       17.7         42       34.0      122.8       34.0       36.0       19.3     1013.6       34.0       23.6        0.0        0.0        0.0       0.00       82.7       0.00       2.45        0.0
12:46             125       19.3         42       34.0      122.8       34.0       36.0       19.3     1013.6       34.0       23.6        0.0        0.0        0.0       0.00       83.1       0.00       2.58        0.0
12:48             109       17.7         42       34.1      122.8       34.1       36.2       19.4     1013.5       34.1       23.6        0.0        0.0        0.0       0.00       83.4       0.00       2.58        0.0
12:50              82       22.5         41       34.2      122.8       34.2       36.0       19.0     1013.5       34.2       23.6        0.0        0.0        0.0       0.00       83.9       0.00       2.58        0.0
12:52              74       16.1         41       34.2      122.8       34.2       36.0       19.0     1013.5       34.2       23.6        0.0        0.0        0.0       0.00       84.4       0.00       2.58        0.0
12:53              62       20.9         41       34.2      122.8       34.2       36.1       19.1     1013.5       34.2       23.6        0.0        0.0        0.0       0.00       84.8       0.00       2.58        0.0
12:56             107       19.3         41       34.2      122.8       34.2       36.1       19.1     1013.5       34.2       23.6        0.0        0.0        0.0       0.00       85.3       0.00       2.58        0.0
12:58              96       20.9         41       34.3      122.8       34.3       36.2       19.1     1013.4       34.3       23.6        0.0        0.0        0.0       0.00       85.5       0.00       2.58        0.0
13:00             111       24.1         41       34.4      122.8       34.4       36.4       19.2     1013.4       34.4       23.6        0.0        0.0        0.0       0.00       86.0       0.00       2.58        0.0
13:02              88       14.5         41       34.4      122.8       34.4       36.5       19.3     1013.4       34.4       23.6        0.0        0.0        0.0       0.00       86.4       0.00       2.71        0.0
13:04              66       12.9         40       34.6      122.8       34.6       36.4       19.0     1013.4       34.6       23.6        0.0        0.0        0.0       0.00       86.8       0.00       2.71        0.0
13:05              66       14.5         40       34.6      122.8       34.6       36.5       19.0     1013.3       34.6       23.6        0.0        0.0        0.0       0.00       87.2       0.00       2.71        0.0
13:08              65       33.8         40       34.6      122.8       34.6       36.5       19.0     1013.4       34.6       23.6        0.0        0.0        0.0       0.00       87.7       0.00       2.71        0.0
13:10              74       32.2         40       34.6      122.8       34.6       36.5       19.0     1013.2       34.7       23.6        0.0        0.0        0.0       0.00       88.3       0.00       2.71        0.0
13:11              84       14.5         39       34.6      122.8       34.6       36.2       18.6     1013.4       34.7       23.6        0.0        0.0        0.0       0.00       88.7       0.00       2.71        0.0
13:14             105       16.1         39       34.7      122.8       34.7       36.3       18.7     1013.2       34.7       23.6        0.0        0.0        0.0       0.00       89.1       0.00       2.71        0.0
13:16              74       16.1         39       34.7      122.8       34.7       36.4       18.7     1013.4       34.7       23.6        0.0        0.0        0.0       0.00       89.6       0.00       2.84        0.0
13:18              38       14.5         39       34.7      122.8       34.7       36.4       18.7     1013.3       34.7       23.6        0.0        0.0        0.0       0.00       89.8       0.00       2.84        0.0
13:20             102       22.5         40       34.7      122.8       34.7       36.7       19.1     1013.2       34.7       23.6        0.0        0.0        0.0       0.00       90.2       0.00       2.84        0.0
13:22              93       22.5         39       34.7      122.8       34.7       36.4       18.7     1013.3       34.7       23.6        0.0        0.0        0.0       0.00       90.5       0.00       2.84        0.0
13:24              84       17.7         38       34.8      122.8       34.8       36.3       18.4     1013.3       34.8       23.6        0.0        0.0        0.0       0.00       91.0       0.00       2.84        0.0
13:26              75        9.7         37       34.9      122.8       34.9       36.3       18.1     1013.2       34.9       23.6        0.0        0.0        0.0       0.00       91.3       0.00       2.84        0.0
13:28              82       19.3         37       35.0      122.8       35.0       36.4       18.1     1013.3       35.0       23.6        0.0        0.0        0.0       0.00       91.7       0.00       2.84        0.0
13:30               5       17.7         36       35.1      122.8       35.1       36.2       17.8     1013.1       35.1       23.6        0.0        0.0        0.0       0.00       92.2       0.00       2.84        0.0